Weather reports worldwide

Advertisment
Cap Bear, France (7749): temperature & dewpoint: 08.12.2018 00:00:00 - 14.12.2018 00:00:00 (CET)Cap Bear, France (7749): wind speed & gusts: 08.12.2018 00:00:00 - 14.12.2018 00:00:00 (CET)Cap Bear, France (7749): wind direction: 08.12.2018 00:00:00 - 14.12.2018 00:00:00 (CET)Cap Bear, France (7749): reduced air pressure: 08.12.2018 00:00:00 - 14.12.2018 00:00:00 (CET)Cap Bear, France (7749): visibility: 08.12.2018 00:00:00 - 14.12.2018 00:00:00 (CET)Cap Bear, France (7749): precipitation: 08.12.2018 00:00:00 - 14.12.2018 00:00:00 (CET)
Date & Time tt [°C] td [°C] ff [km/h] ff [kn] fx [km/h] fx [kn] dd ppp [hPa] vv [km] rr [mm]
14.12.2018 00:00:00 - - - - - - - - - -
13.12.2018 23:00:00 7,5 6,9 47 26 85 46 NW 1008,7 - 6,2
13.12.2018 22:00:00 7,4 6,5 61 33 85 46 NW 1007,3 - 1,7
13.12.2018 21:00:00 7,7 6,8 47 25 75 41 NW 1006,4 - 1,0
13.12.2018 20:00:00 7,4 6,7 49 26 67 36 NW 1005,7 - 1,4
13.12.2018 19:00:00 7,2 6,5 45 24 61 33 NW 1005,3 15 1,4
13.12.2018 18:00:00 7,3 6,7 42 23 56 30 NW 1004,7 - 1,0
13.12.2018 17:00:00 7,4 6,7 34 19 54 29 NW 1004,7 - 0,6
13.12.2018 16:00:00 7,9 6,8 33 18 48 26 NW 1004,5 - 0,0
13.12.2018 15:00:00 8,2 6,3 31 17 51 27 NW 1004,5 - 0,0
13.12.2018 14:00:00 7,8 5,6 39 21 53 28 NW 1004,8 - 0,0
13.12.2018 13:00:00 8,0 6,0 36 20 47 26 NW 1005,8 - 0,0
13.12.2018 12:00:00 8,2 6,7 31 17 47 25 NW 1006,7 - 0,0
13.12.2018 11:00:00 8,7 6,8 30 16 47 26 NW 1007,6 - 0,0
13.12.2018 10:00:00 9,0 6,8 29 16 35 19 WNW 1007,8 15 0,0
13.12.2018 09:00:00 9,5 6,8 16 8 20 11 NW 1008,3 - 0,0
13.12.2018 08:00:00 10,3 7,5 11 6 17 9 WSW 1008,7 - 0,0
13.12.2018 07:00:00 11,3 7,2 5 3 14 7 SSE 1009,0 20 0,0
13.12.2018 06:00:00 11,2 7,1 10 6 22 12 S 1009,7 - 0,0
13.12.2018 05:00:00 11,2 6,9 16 9 23 12 S 1010,5 - 0,0
13.12.2018 04:00:00 10,8 6,7 16 9 23 13 SSW 1011,7 15 0,0
13.12.2018 03:00:00 10,7 7,0 16 9 21 12 SSW 1012,4 - 0,0
13.12.2018 02:00:00 10,5 7,4 16 9 22 12 SSW 1013,3 - 0,0
13.12.2018 01:00:00 10,8 7,1 11 6 29 16 S 1014,0 - 0,0
13.12.2018 00:00:00 11,1 6,2 10 6 18 10 S 1014,8 - 0,0
12.12.2018 23:00:00 11,2 5,5 12 7 27 15 NW 1015,6 - 0,0
12.12.2018 22:00:00 11,8 6,1 19 11 28 15 NNW 1015,8 - 0,0
12.12.2018 21:00:00 11,6 5,2 16 9 31 17 NW 1016,3 - 0,0
12.12.2018 20:00:00 11,7 5,6 18 10 35 19 WNW 1016,9 - 0,0
12.12.2018 19:00:00 12,0 5,8 22 12 29 16 NW 1017,1 18 0,0
12.12.2018 18:00:00 11,4 5,9 14 8 22 12 WNW 1017,3 - 0,0
12.12.2018 17:00:00 12,2 7,7 6 3 13 7 SE 1017,2 - 0,0
12.12.2018 16:00:00 12,3 8,0 6 4 12 6 SSE 1017,4 - 0,0
12.12.2018 15:00:00 12,5 8,2 3 1 17 9 SSE 1017,9 - 0,0
12.12.2018 14:00:00 12,4 7,3 11 6 27 15 ENE 1018,6 - 0,0
12.12.2018 13:00:00 13,5 7,3 22 12 28 15 SSE 1018,3 25 0,0
12.12.2018 12:00:00 13,6 7,6 20 11 25 13 SSE 1019,0 - 0,0
12.12.2018 11:00:00 12,8 7,5 15 8 20 11 SSE 1019,8 - 0,0
12.12.2018 10:00:00 11,3 6,6 5 3 8 4 ESE 1019,9 25 0,0
12.12.2018 09:00:00 10,2 6,3 5 3 6 4 S 1019,9 - 0,0
12.12.2018 08:00:00 9,1 4,9 2 1 5 3 S 1019,8 - 0,0
12.12.2018 07:00:00 9,3 5,1 3 1 23 12 N 1019,6 18 0,0
12.12.2018 06:00:00 8,5 4,1 16 9 27 15 NW 1019,7 - 0,0
12.12.2018 05:00:00 8,0 3,1 23 12 27 15 NW 1020,0 - 0,0
12.12.2018 04:00:00 8,0 4,2 17 9 22 12 NW 1020,2 18 0,0
12.12.2018 03:00:00 8,9 3,3 18 10 23 12 NW 1020,4 - 0,0
12.12.2018 02:00:00 9,2 3,0 19 10 23 12 NW 1020,5 - 0,0
12.12.2018 01:00:00 9,1 3,3 17 9 21 12 NW 1020,5 - 0,0
12.12.2018 00:00:00 9,3 3,5 17 9 24 13 NW 1020,5 - 0,0
11.12.2018 23:00:00 9,2 3,4 22 12 24 13 NW 1020,5 - 0,0
11.12.2018 22:00:00 9,2 3,4 14 8 22 12 WNW 1020,6 - 0,0
11.12.2018 21:00:00 9,9 4,5 5 3 11 6 NW 1020,6 - 0,0
11.12.2018 20:00:00 10,6 4,5 9 5 10 6 SSW 1020,4 - 0,0
11.12.2018 19:00:00 11,0 4,2 6 3 10 5 SSE 1020,0 - 0,0
11.12.2018 18:00:00 11,0 4,4 5 3 15 8 SE 1020,0 - 0,0
11.12.2018 17:00:00 11,3 3,6 8 4 13 7 ESE 1019,5 - 0,0
11.12.2018 16:00:00 12,0 3,2 8 5 13 7 SSE 1019,6 - 0,0
11.12.2018 15:00:00 12,4 2,3 8 4 16 9 E 1020,3 - 0,0
11.12.2018 14:00:00 11,7 2,4 6 4 21 12 N 1021,0 - 0,0
11.12.2018 13:00:00 12,2 3,2 16 9 23 12 N 1021,9 - 0,0
11.12.2018 12:00:00 11,8 3,3 14 7 29 16 NNW 1022,7 - 0,0
11.12.2018 11:00:00 10,6 2,4 23 12 37 20 NW 1023,3 - 0,0
11.12.2018 10:00:00 10,0 3,3 22 12 36 20 NW 1023,3 20 0,0
11.12.2018 09:00:00 9,4 2,7 24 13 36 19 NW 1023,2 - 0,0
11.12.2018 08:00:00 9,0 3,4 21 11 41 22 NW 1023,5 - 0,0
11.12.2018 07:00:00 9,2 3,4 31 17 55 30 NW 1023,4 15 0,0
11.12.2018 06:00:00 9,7 4,1 38 21 54 29 NW 1023,5 - 0,0
11.12.2018 05:00:00 9,2 3,6 29 15 46 25 NW 1024,2 - 0,0
11.12.2018 04:00:00 9,5 4,5 36 20 46 25 NW 1024,6 - 0,0
11.12.2018 03:00:00 10,0 5,0 29 16 41 22 NW 1025,1 - 0,0
11.12.2018 02:00:00 9,8 4,8 22 12 32 17 NW 1025,2 - 0,0
11.12.2018 01:00:00 10,5 5,3 14 8 42 23 NW 1026,0 - 0,0
11.12.2018 00:00:00 10,5 5,3 26 14 36 19 NW 1026,3 - 0,0
10.12.2018 23:00:00 10,4 4,5 16 9 36 19 NW 1027,1 - 0,0
10.12.2018 22:00:00 11,4 5,3 31 17 56 30 NNW 1027,1 - 0,0
10.12.2018 21:00:00 11,4 5,3 49 26 56 30 NNW 1026,6 - 0,0
10.12.2018 20:00:00 11,3 5,6 36 20 49 26 NNW 1027,5 - 0,0
10.12.2018 19:00:00 10,8 5,1 24 13 48 26 NW 1027,6 18 0,0
10.12.2018 18:00:00 11,7 6,8 39 21 70 38 NNW 1027,2 - 0,0
10.12.2018 17:00:00 12,0 7,1 60 33 80 43 N 1026,2 - 0,0
10.12.2018 16:00:00 12,6 6,8 66 35 81 44 NNW 1025,7 18 0,0
10.12.2018 15:00:00 12,7 6,9 70 38 83 45 NNW 1025,9 - 0,0
10.12.2018 14:00:00 12,7 7,4 62 34 82 44 NNW 1026,6 - 0,0
10.12.2018 13:00:00 12,4 7,7 68 37 85 46 N 1027,0 18 0,0
10.12.2018 12:00:00 12,8 7,2 64 34 85 46 N 1027,8 - 0,0
10.12.2018 11:00:00 13,3 7,1 66 36 83 45 NNW 1028,3 - 0,0
10.12.2018 10:00:00 12,7 6,5 62 34 80 43 NNW 1028,5 - 0,0
10.12.2018 09:00:00 12,6 6,2 74 40 105 57 NNW 1027,3 - 0,0
10.12.2018 08:00:00 12,7 6,3 82 44 113 61 NNW 1026,2 - 0,0
10.12.2018 07:00:00 12,8 7,2 80 43 99 54 N 1025,6 18 0,0
10.12.2018 06:00:00 12,7 6,7 81 44 108 59 N 1025,0 - 0,0
10.12.2018 05:00:00 12,9 6,0 90 48 127 69 NNW 1025,0 - 0,0
10.12.2018 04:00:00 13,1 6,9 85 46 106 57 NNW 1025,2 18 0,0
10.12.2018 03:00:00 13,0 6,8 64 35 115 62 NNW 1026,7 - 0,0
10.12.2018 02:00:00 13,5 6,4 97 53 119 65 NNW 1024,2 - 0,0
10.12.2018 01:00:00 13,6 6,5 94 51 121 66 NNW 1024,3 - 0,0
10.12.2018 00:00:00 13,9 3,9 92 50 117 63 NNW 1024,9 - 0,0
09.12.2018 23:00:00 13,7 6,1 86 47 145 79 NNW 1025,6 - 0,0
09.12.2018 22:00:00 13,7 7,0 104 56 127 69 NNW 1022,7 - 0,0
09.12.2018 21:00:00 13,9 6,7 103 56 146 79 NNW 1023,7 - 0,0
09.12.2018 20:00:00 15,4 6,9 110 59 135 73 NNW 1021,2 - 0,0
09.12.2018 19:00:00 15,7 6,7 90 49 145 79 NNW 1020,9 18 0,0
09.12.2018 18:00:00 15,8 7,0 104 56 146 79 NNW 1019,7 - 0,0
09.12.2018 17:00:00 15,8 7,0 86 47 118 64 NW 1020,7 - 0,0
09.12.2018 16:00:00 16,5 6,6 75 40 100 54 NW 1021,1 20 0,0
09.12.2018 15:00:00 16,5 7,4 71 38 89 48 NNW 1020,5 - 0,0
09.12.2018 14:00:00 17,2 7,5 57 31 75 41 NW 1021,0 - 0,0
09.12.2018 13:00:00 17,0 8,2 29 15 46 25 NNW 1022,1 20 0,0
09.12.2018 12:00:00 16,9 8,3 14 8 28 15 NW 1023,0 - 0,0
09.12.2018 11:00:00 16,0 8,0 21 11 41 22 NW 1023,5 - 0,0
09.12.2018 10:00:00 15,9 7,6 27 15 43 23 NW 1023,1 - 0,0
09.12.2018 09:00:00 15,0 7,3 6 4 38 21 WNW 1022,9 - 0,0
09.12.2018 08:00:00 15,1 7,6 36 19 48 26 NW 1022,2 - 0,0
09.12.2018 07:00:00 14,1 6,4 9 5 23 12 N 1023,0 - 0,0
09.12.2018 06:00:00 12,7 6,5 5 3 27 15 WSW 1022,6 - 0,0
09.12.2018 05:00:00 13,9 5,8 4 2 9 5 NNE 1023,1 - 0,0
09.12.2018 04:00:00 13,3 5,0 5 3 11 6 ENE 1023,1 20 0,0
09.12.2018 03:00:00 12,1 7,2 3 2 9 5 S 1023,6 - 0,0
09.12.2018 02:00:00 11,9 6,6 4 2 9 5 SW 1023,5 - 0,0
09.12.2018 01:00:00 12,3 5,2 7 4 18 10 SW 1024,0 - 0,0
09.12.2018 00:00:00 11,6 5,9 11 6 15 8 S 1024,6 - 0,0
08.12.2018 23:00:00 12,2 5,6 3 2 16 9 WNW 1024,9 - 0,0
08.12.2018 22:00:00 12,3 5,9 13 7 19 11 NW 1025,1 - 0,0
08.12.2018 21:00:00 12,4 5,3 16 9 34 19 WNW 1025,4 - 0,0
08.12.2018 20:00:00 12,7 5,4 24 13 37 20 NW 1025,4 - 0,0
08.12.2018 19:00:00 13,3 4,4 19 10 38 21 NW 1025,7 20 0,0
08.12.2018 18:00:00 13,7 4,3 27 14 43 23 WNW 1025,2 - 0,0
08.12.2018 17:00:00 13,9 4,2 25 14 46 25 NW 1025,0 - 0,0
08.12.2018 16:00:00 14,8 5,3 41 22 71 38 NNW 1025,2 25 0,0
08.12.2018 15:00:00 14,8 4,5 62 34 98 53 NNW 1024,5 - 0,0
08.12.2018 14:00:00 14,8 5,8 67 36 81 44 NNW 1024,6 - 0,0
08.12.2018 13:00:00 14,4 6,5 61 33 87 47 NNW 1025,5 25 0,0
08.12.2018 12:00:00 14,1 5,2 67 36 100 54 NNW 1025,5 - 0,0
08.12.2018 11:00:00 13,4 5,5 64 35 98 53 NNW 1025,9 - 0,0
08.12.2018 10:00:00 12,8 5,9 82 44 101 55 NNW 1023,7 25 0,0
08.12.2018 09:00:00 12,1 6,2 68 37 81 44 NNW 1024,6 - 0,0
08.12.2018 08:00:00 11,9 6,2 64 35 76 41 NNW 1024,3 - 0,0
08.12.2018 07:00:00 11,5 6,4 68 37 87 47 N 1024,0 20 0,0
08.12.2018 06:00:00 11,9 6,4 68 37 81 44 N 1023,3 - 0,0
08.12.2018 05:00:00 12,2 6,2 69 37 90 49 NNW 1023,5 - 0,0
08.12.2018 04:00:00 12,4 6,2 75 41 94 51 NNW 1023,6 20 0,0
08.12.2018 03:00:00 12,7 6,9 56 30 80 43 NNW 1023,9 - 0,0
08.12.2018 02:00:00 12,8 6,6 67 36 94 51 NNW 1023,3 - 0,0
08.12.2018 01:00:00 13,2 7,2 55 30 114 62 NW 1022,4 - 0,0
08.12.2018 00:00:00 12,2 8,7 63 34 101 54 NNW 1021,6 - 0,0

tt = temperature
td = dewpoint
ff = wind speed
fx = gusts
dd = wind direction
ppp = reduced air pressure
vv = visibility
rr = precipitation

Next stations